Погода в Цимлянске

Погода в Цимлянске : погода сейчас, прогноз погоды и архив. Всё, что Вы хотите узнать о погоде в Цимлянске!

Хотите узнать прогноз погоды в Цимлянске? Тогда Вам сюда: Погода в Цимлянске

Поиск расширенной информации на нашем сайте:

Другие новости

Новости СМИ2

Главная страница сайта

Новости сайта

03.07.2017

Напоминаем, что на нашем специализированном сайте Метеоцентр.Азия вы можете получить высокодетализированные автоматические прогнозы погоды по пунктам России, СНГ и мира в авиационном формате (включающие направление и скорость ветра, видимость, явления погоды, количество и форму облачности, нижнюю и верхнюю границу облачности).

Рекомендуем: Подробности сканер штрих кода у нас.

Погода в Цимлянске - сегодня

Время (UTC), дата Ветер
(°,м/с) 
Видим.   Явления Облачность Т
(°С)
Тd
(°С)
f(%) Тe
(°С)
Pmin
(гПа)
dP
(гПа)
Po
(мм)
O2
(г/м3)
Тmin Tmax R s Состояние
почвы
12 09.12.17 150 (ЮВ) 20000 м    10/6 600 м средняя 
[Sc|Ac und]
+2.1 -1.2 79 +1  1021.5  -0.8  760  304           
15 09.12.17 120 (ЮВ) 20000 м    8/0 средняя 
[Ac trans]
+2 -0.2 85 +1  1021.2  -0.3  760  304    +2.2       
18 09.12.17 120 (ЮВ) 20000 м    8/0 средняя 
[Ac cast]
+2.1 +0.6 90 +1  1020.8  -0.4  759  304           
21 09.12.17 150 (ЮВ) 20000 м    10/0 средняя 
[Ac und]
+2.6 +1.2 90 +3  1020.7  0.1  759  303           
00 10.12.17 150 (ЮВ) 20000 м    8/0 средняя 
[Ac trans]
+2.9 +1.1 88 +4  1020.4  0.1  759  303           
03 10.12.17 140 (ЮВ) 20000 м    10/6 600 м средняя 
[Sc|Ac und]
+3.8 +0.4 78 +5  1020.3  -0.2  759  302  +1.8         
06 10.12.17 180 (Ю) 20000 м    10/0 средняя, верхняя 
[Ac trans|Ci fib]
+3.9 -0.3 74 +3  1020.3  -0.1  759  302           
09 10.12.17 180 (Ю) 20000 м    4/0 средняя, верхняя 
[Ac trans|Ci fib]
+8.2 +1.2 61 +7  1019.4  -0.8  758  297           
12 10.12.17 160 (Ю) 4{11}  20000 м    3/0 средняя 
[Ac trans]
+8.1 +1.4 63 +7  1017.8  -1.6  757  296           
15 10.12.17 140 (ЮВ) 20000 м    3/0 средняя 
[Ac trans]
+5.5 +1.4 75 +4  1017.2  -0.7  757  299    +9.2       
18 10.12.17 160 (Ю) 8-15{15}  20000 м    9/9 1000 м 
[Sc]
+3.9 +2 87 +1  1016.5  -0.8  756  300           
21 10.12.17 140 (ЮВ) 4{15}  20000 м    8/8 1000 м 
[Sc]
+4.1 +2 86 +2  1015.5  -1  755  300           
00 11.12.17 170 (Ю) 5{12}  20000 м    10/6 1000 м верхняя 
[Sc|Ci fib]
+4.1 +2.1 87 +2  1016.3  0.8  756  300           
03 11.12.17 220 (ЮЗ) 10 км  слаб. ливневой дождь  10/10 600 м кучево-дожд. 
[Cb cap]
+4.1 +3 93 +3  1018.3  758  300  +3.3       
06 11.12.17 250 (З) 4{11}  20000 м  {ливн. осадки}  9/8 600 м верхняя 
[Sc|Ci]
+2.4 -0.5 81 1021.4  760  304  +2.4         
09 11.12.17 260 (З) 6-10{12}  20000 м    9/8 600 м верхняя 
[Sc|Ci]
+3.5 -1.5 70 +1  1023.5  2.1  761  303           
12 11.12.17 230 (ЮЗ) 3{11}  20000 м    6/0 средняя, верхняя 
[Ac trans|Ci fib]
+4.3 -2.1 63 +3  1024  0.5  762  302           
15 11.12.17 190 (Ю) 20000 м    10/0 средняя 
[Ac und]
+1.8 -1.8 77 +3  1025.9  1.8  763  306    +4.9  0.0     
18 11.12.17 190 (Ю) 20000 м    10/0 средняя 
[Ac und]
+3 -0.7 77 +2  1025.8  0.1  763  304           
21 11.12.17 190 (Ю) 20000 м    10/0 средняя 
[Ac und]
+3.6 -0.6 74 +2  1025.4  -0.4  763  303           
00 12.12.17 220 (ЮЗ) 20000 м    10/10 600 м 
[Sc]
+3.6 -0.1 77 +3  1025.4  -0.1  763  303           
03 12.12.17 190 (Ю) 10 км  слаб. ливневой дождь  10/10 600 м кучево-дожд. 
[Cb cap]
+4.1 +1.4 83 +2  1024  -1.3  762  302  +1.8    0.4     
06 12.12.17 190 (Ю) 5-10{10}  10 км  слаб. ливневой дождь  10/10 600 м кучево-дожд. 
[Cb cap]
+5 +1.8 80 +3  1023.4  -0.6  761  301           
09 12.12.17 220 (ЮЗ) 3{10}  10 км  слаб. ливневой дождь  10/10 600 м кучево-дожд. 
[Cb cap]
+5.5 +3.4 86 +4  1023.4  761  300           
12 12.12.17 170 (Ю) 20000 м  {ливн. осадки}  10/10 600 м 
[Sc diur, vesp]
+6.7 +4 83 +8  1022.2  -1.1  761  299           
Время (UTC), дата Ветер
(°,м/с) 
Видим.   Явления Облачность Т
(°С)
Тd
(°С)
f(%) Тe
(°С)
Pmin
(гПа)
dP
(гПа)
Po
(мм)
O2
(г/м3)
Тmin Tmax R s Состояние
почвы

Для получения пояснительной информации подведите курсор к названию столбца.

ПОГОДА в Цимлянске - архив

Всё, что Вы хотите узнать о погоде в Цимлянске - удобно и подробно!

Выберите нужную дату (начиная с 1 января 2015* года) и нажмите кнопку "Найти".
Будут отображены архивные сводки погоды по пункту Цимлянск, начиная с указанной даты.


Отображать данные в формате CSV (для использования в таблицах Excel)


Внимание! Наш архив погоды предназначен исключительно для личного некоммерческого использования в познавательных целях. Если Вам необходимы официальные справки о состоянии погоды (для производственных, юридических, коммерческих и т.п. целей), обращайтесь в органы Росгидромета.

*Примечание: данная дата относится к архиву по метеостанциям СССР (Россия, СНГ, Балтия).
Архив по метеостанциям Зарубежной Европы и Азии (кроме Китая) хранится 10 дней, по другим регионам земного шара (Китай, Африка, Америка, Австралия, Океания) - 1 день.

Цимлянск - район местоположения метеостанции


Название, широта, долгота, высота метеостанции:
Цимлянск 47.6°ш. 42.1°д. 65 м над ур. моря [Российская Федерация]

Дополнительная информация

В oтличие oт бoльшинства пoгoдных сайтoв мы публикуем пoдрoбную метеoинфoрмацию в детальнoм прoфессиoнальнoм фoрмате.

Характеристики температуры и влажнoсти вoздуха измеряются на высoте 2 м в тени вдали oт зданий и деревьев.
Скoрoсть ветра измеряется на высoте 10 м (на урoвне рoста челoвека скoрoсть ветра ниже в 1.5-2 раза). Если метеoстанция нахoдится в гoрoде или в лесу, тo скoрoсть ветра занижена на 2-4 м/с пo сравнению с oткрытым местoм. Скoрoсть ветра над акватoриями крупных рек и oзёр, а также на вершинах хoлмoв на 2-5 м/с выше, чем в oбычных услoвиях.
Атмoсфернoе давление в разных тoчках местнoсти мoжет значительнo oтличаться oт давления на метеoстанции, в зависимoсти oт услoвий рельефа (при пoдъёме на 10 м давление пoнижается примернo на 1 мм рт.ст.).